Regional Weather Roundup
Issued by NWS

Home | Current Version | Previous Version | Graphics & Text | Print | Product List | Glossary On
Versions: 1 2 3 4 5 6 7 8 9 10 11 12 13 14 15 16 17 18 19 20 21 22 23 24 25 26 27 28 29 30 31 32 33 34 35 36 37 38 39 40 41 42 43 44 45 46 47 48 49 50
000
ASUS43 KLSX 240610
RWRMO

WEATHER SUMMARY FOR MISSOURI
NATIONAL WEATHER SERVICE SPRINGFIELD MO
100 AM CDT TUE MAY 24 2016

NOTE: "FAIR" INDICATES FEW OR NO CLOUDS BELOW 12,000 FEET WITH NO
       SIGNIFICANT WEATHER AND/OR OBSTRUCTIONS TO VISIBILITY.
       CURRENT SKY AND/OR WEATHER CONDITIONS ARE NOT AVAILABLE FOR
       CHILLICOTHE AND FARMINGTON.

MOZ001>031-035>038-043-044-053-054-240700-
...NORTHERN AND WESTERN MISSOURI...

CITY           SKY/WX    TMP DP  RH WIND       PRES   REMARKS
KANSAS CTY INT PTCLDY    63  60  90 S10       29.90F
6HR MIN TEMP:  60; 6HR MAX TEMP:  70;

KANSAS C DTWN  CLEAR     63  60  90 S6        29.90S
6HR MIN TEMP:  63; 6HR MAX TEMP:  73;

LEE`S SUMMIT   CLEAR     64  60  87 S8        29.92R
6HR MIN TEMP:  64; 6HR MAX TEMP:  73;

ST JOSEPH      CLOUDY    66  61  84 S10       29.88F
6HR MIN TEMP:  64; 6HR MAX TEMP:  70;

CHILLICOTHE      N/A     62  60  93 CALM      29.92R
6HR MIN TEMP:  62; 6HR MAX TEMP:  77;

KIRKSVILLE     CLOUDY    66  56  70 S9        29.93R
6HR MIN TEMP:  63; 6HR MAX TEMP:  75;


$$
MOZ066>068-077>081-088>096-101>105-240700-
...SOUTHWEST MISSOURI...

CITY           SKY/WX    TMP DP  RH WIND       PRES   REMARKS
SPRINGFIELD    CLEAR     61  59  93 S5        29.95R FOG
6HR MIN TEMP:  61; 6HR MAX TEMP:  66; 6HR PCP: TRACE;

JOPLIN         CLOUDY    64  61  90 S7        29.92S
6HR MIN TEMP:  62; 6HR MAX TEMP:  67; 6HR PCP: TRACE;


$$
MOZ032>034-039>042-045>050-055>058-069>072-240700-
...CENTRAL MISSOURI...

CITY           SKY/WX    TMP DP  RH WIND       PRES   REMARKS
COLUMBIA       CLOUDY    67  58  72 SE3       29.95R
6HR MIN TEMP:  67; 6HR MAX TEMP:  76;

JEFFERSON CITY CLOUDY    69  59  70 SE3       29.94S
6HR MIN TEMP:  69; 6HR MAX TEMP:  78;

ROLLA          CLOUDY    66  57  72 S5        29.94S
6HR MIN TEMP:  65; 6HR MAX TEMP:  73;

SEDALIA        CLOUDY    65  60  84 S5        29.95R
6HR MIN TEMP:  64; 6HR MAX TEMP:  75;

WHITEMAN AFB   CLEAR     63  63 100 S5        29.93R
WARRENSBURG    PTCLDY    61  59  94 SE3       29.92S
OSAGE BEACH      N/A    N/A N/A N/A S5        29.95S

$$
MOZ051-052-059>065-240700-
...EAST CENTRAL MISSOURI...

CITY           SKY/WX    TMP DP  RH WIND       PRES   REMARKS
ST LOUIS INTL  CLOUDY    72  53  51 S5        29.96R
6HR MIN TEMP:  71; 6HR MAX TEMP:  80;

SPIRIT OF STL  PTCLDY    63  57  81 CALM      29.94R
6HR MIN TEMP:  63; 6HR MAX TEMP:  77;

ST CHARLES     CLOUDY    63  57  81 NE3       29.94R
6HR MIN TEMP:  63; 6HR MAX TEMP:  78;


$$
MOZ072>076-082>087-097>100-106>115-240700-
...SOUTH CENTRAL AND SOUTHEAST MISSOURI...

CITY           SKY/WX    TMP DP  RH WIND       PRES   REMARKS
CAPE GIRARDEAU CLEAR     63  57  81 CALM      29.98R
6HR MIN TEMP:  61; 6HR MAX TEMP:  78;

FARMINGTON     CLOUDY    62  58  86 S3        29.99R
6HR MIN TEMP:  60; 6HR MAX TEMP:  73;

POPLAR BLUFF   CLOUDY    66  63  90 NE3       29.98R
6HR MIN TEMP:  66; 6HR MAX TEMP:  78;

WEST PLAINS    CLEAR     62  57  83 CALM      29.99R
6HR MIN TEMP:  62; 6HR MAX TEMP:  74; 6HR PCP: TRACE;


$$



USA.gov is the U.S. government's official web portal to all federal, state and local government web resources and services.